sat.trackr.live / text

‹ back to catalog

2022-098C

NORAD 53446 · 2022-098C

PAYLOAD ACTIVE UNKNOWN

§ Identity

Operator
Country
PRC
Launch date
2022-08-10
Launch site
TAISC
Launch vehicle
Mass (kg)
RCS (m²)

External: N2YO · Heavens-Above · Gunter

§ Orbital elements

Epoch: 2026-09-20T22:58:08.827968Z

Period
90.80 min
Inclination
97.5729°
Eccentricity
0.0001715
Mean motion
15.85844562 rev/d
Perigee alt
312.8 km
Apogee alt
315.1 km
Semi-major
6,692.1 km
B*
6.1258e-4
RAAN
42.9350°
Arg perigee
276.8853°
Mean anomaly
83.2222°
Rev number
22,972

§ Raw data

2022-098C1 53446U 22098C   26263.95704662  .00150931  00000+0  61258-3 0  99942 53446  97.5729  42.9350 0001715 276.8853  83.2222 15.85844562229728

JSON: /api/v1/satellites/53446 · /tle

For live sub-satellite position, see the globe view (requires WebGL).

§ Visibility from observer

Set your observer location to see the next 7 days of passes ≥ 10°. The values pass through the URL so the page stays shareable.

No JS? Fill the form by hand. The geolocation button needs JavaScript.